Terminal Aerodrome Forecast
Issued by NWS

Current Version | Previous Version | Graphics & Text | Print | Product List | Glossary On
Versions: 1 2 3 4 5 6 7 8 9 10 11 12 13 14 15 16 17 18
000
FTUS41 KILN 240858 AAA
TAFLCK
TAF AMD
KLCK 240858Z 2409/2506 00000KT P6SM SCT120 OVC250
      TEMPO 2409/2412 3SM BR
     FM241400 23006KT P6SM SCT030 BKN200
     FM241800 29007KT P6SM SCT045
     FM250000 VRB03KT P6SM SCT040=

USA.gov is the U.S. government's official web portal to all federal, state and local government web resources and services.